• în Republica Moldova
  • Lista ţărilor
  • Pe 7 zile
  • Temperatura apei
  • Hartă satelitară
  • Meteo pe hartă
  • Widget-uri
  • user-avatar
    Intrare

    Meteo pe oră la Uige

    Astăzi, 23 Iulie, Duminică

    Timp Temperatura Precipitaţii Vânt Presiune Umiditate
    00:00 +20°C° 0 mm 1 m/s 692 mmHg 80%
    01:00 +19°C° 0 mm 1 m/s 692 mmHg 86%
    02:00 +18°C° 0 mm 1 m/s 692 mmHg 89%
    03:00 +18°C° 0 mm 1 m/s 692 mmHg 92%
    04:00 +16°C° 0 mm 1 m/s 691 mmHg 95%
    05:00 +18°C° 0 mm 1 m/s 692 mmHg 93%
    06:00 +18°C° 0 mm 1 m/s 692 mmHg 92%
    07:00 +18°C° 0 mm 1 m/s 693 mmHg 90%
    08:00 +22°C° 0 mm 1 m/s 693 mmHg 75%
    09:00 +25°C° 0 mm 1 m/s 694 mmHg 60%
    10:00 +28°C° 0 mm 1 m/s 695 mmHg 45%
    11:00 +30°C° 0 mm 1 m/s 694 mmHg 39%
    12:00 +33°C° 0 mm 1 m/s 694 mmHg 32%
    13:00 +34°C° 0 mm 1 m/s 694 mmHg 28%
    14:00 +35°C° 0 mm 2 m/s 693 mmHg 28%
    15:00 +34°C° 0 mm 2 m/s 693 mmHg 28%
    16:00 +34°C° 0 mm 2 m/s 692 mmHg 27%
    17:00 +31°C° 0 mm 2 m/s 692 mmHg 33%
    18:00 +28°C° 0 mm 2 m/s 692 mmHg 39%
    19:00 +26°C° 0 mm 2 m/s 693 mmHg 45%
    20:00 +25°C° 0 mm 2 m/s 693 mmHg 54%
    21:00 +23°C° 0 mm 2 m/s 693 mmHg 63%
    22:00 +20°C° 0 mm 2 m/s 694 mmHg 72%
    23:00 +20°C° 0 mm 2 m/s 694 mmHg 77%

    Mâine, 24 Iulie, Luni

    Timp Temperatura Precipitaţii Vânt Presiune Umiditate
    00:00 +19°C° 0 mm 2 m/s 694 mmHg 81%
    01:00 +19°C° 0 mm 1 m/s 694 mmHg 86%
    02:00 +18°C° 0 mm 2 m/s 693 mmHg 86%
    03:00 +18°C° 0 mm 2 m/s 693 mmHg 86%
    04:00 +18°C° 0 mm 2 m/s 693 mmHg 86%
    05:00 +18°C° 0 mm 2 m/s 693 mmHg 85%
    06:00 +19°C° 0 mm 1 m/s 693 mmHg 84%
    07:00 +19°C° 0 mm 1 m/s 694 mmHg 84%
    08:00 +22°C° 0 mm 1 m/s 694 mmHg 71%
    09:00 +25°C° 0 mm 1 m/s 695 mmHg 59%
    10:00 +28°C° 0 mm 1 m/s 696 mmHg 46%
    11:00 +30°C° 0 mm 1 m/s 695 mmHg 41%
    12:00 +32°C° 0 mm 1 m/s 695 mmHg 35%
    13:00 +34°C° 0 mm 1 m/s 694 mmHg 29%
    14:00 +35°C° 0 mm 2 m/s 694 mmHg 29%
    15:00 +35°C° 0 mm 2 m/s 693 mmHg 29%
    16:00 +34°C° 0 mm 2 m/s 692 mmHg 28%
    17:00 +31°C° 0 mm 2 m/s 692 mmHg 33%
    18:00 +29°C° 0 mm 2 m/s 692 mmHg 38%
    19:00 +27°C° 0 mm 2 m/s 693 mmHg 42%
    20:00 +26°C° 0 mm 2 m/s 693 mmHg 47%
    21:00 +24°C° 0 mm 2 m/s 693 mmHg 53%
    22:00 +23°C° 0 mm 2 m/s 693 mmHg 58%
    23:00 +21°C° 0 mm 2 m/s 693 mmHg 64%

    Poimâine, 25 Iulie, Marţi

    Timp Temperatura Precipitaţii Vânt Presiune Umiditate
    00:00 +21°C° 0 mm 1 m/s 693 mmHg 70%
    01:00 +20°C° 0 mm 1 m/s 693 mmHg 75%
    02:00 +19°C° 0 mm 1 m/s 693 mmHg 79%
    03:00 +19°C° 0 mm 1 m/s 692 mmHg 83%
    04:00 +18°C° 0 mm 1 m/s 692 mmHg 88%
    05:00 +18°C° 0 mm 1 m/s 692 mmHg 87%
    06:00 +19°C° 0 mm 1 m/s 693 mmHg 87%
    07:00 +19°C° 0 mm 1 m/s 693 mmHg 86%
    08:00 +22°C° 0 mm 1 m/s 694 mmHg 72%
    09:00 +25°C° 0 mm 2 m/s 695 mmHg 57%
    10:00 +29°C° 0 mm 2 m/s 695 mmHg 43%
    11:00 +30°C° 0 mm 2 m/s 695 mmHg 37%
    12:00 +32°C° 0 mm 2 m/s 694 mmHg 32%
    13:00 +35°C° 0 mm 2 m/s 693 mmHg 26%
    14:00 +35°C° 0 mm 2 m/s 693 mmHg 25%
    15:00 +35°C° 0 mm 2 m/s 692 mmHg 25%
    16:00 +35°C° 0 mm 2 m/s 691 mmHg 24%
    17:00 +32°C° 0 mm 2 m/s 691 mmHg 29%
    18:00 +30°C° 0 mm 2 m/s 691 mmHg 34%
    19:00 +27°C° 0 mm 2 m/s 692 mmHg 39%
    20:00 +26°C° 0 mm 2 m/s 692 mmHg 46%
    21:00 +24°C° 0 mm 2 m/s 692 mmHg 54%
    22:00 +21°C° 0 mm 2 m/s 693 mmHg 61%
    23:00 +20°C° 0 mm 2 m/s 693 mmHg 68%

    26 Iulie, Miercuri

    Timp Temperatura Precipitaţii Vânt Presiune Umiditate
    00:00 +19°C° 0 mm 2 m/s 692 mmHg 74%
    01:00 +18°C° 0 mm 2 m/s 692 mmHg 80%
    02:00 +18°C° 0 mm 2 m/s 692 mmHg 84%
    03:00 +18°C° 0 mm 1 m/s 691 mmHg 87%
    04:00 +18°C° 0 mm 1 m/s 691 mmHg 91%
    05:00 +18°C° 0 mm 1 m/s 691 mmHg 89%
    06:00 +18°C° 0 mm 1 m/s 692 mmHg 88%
    07:00 +18°C° 0 mm 1 m/s 692 mmHg 86%
    08:00 +22°C° 0 mm 1 m/s 693 mmHg 71%
    09:00 +25°C° 0 mm 1 m/s 694 mmHg 57%
    10:00 +29°C° 0 mm 1 m/s 695 mmHg 42%
    11:00 +31°C° 0 mm 1 m/s 694 mmHg 35%
    12:00 +33°C° 0 mm 1 m/s 693 mmHg 29%
    13:00 +35°C° 0 mm 1 m/s 693 mmHg 23%
    14:00 +36°C° 0 mm 2 m/s 692 mmHg 23%
    15:00 +36°C° 0 mm 2 m/s 691 mmHg 22%
    16:00 +36°C° 0 mm 2 m/s 691 mmHg 22%
    17:00 +32°C° 0 mm 2 m/s 691 mmHg 27%
    18:00 +30°C° 0 mm 2 m/s 691 mmHg 31%
    19:00 +27°C° 0 mm 2 m/s 691 mmHg 36%
    20:00 +26°C° 0 mm 2 m/s 692 mmHg 42%
    21:00 +24°C° 0 mm 2 m/s 692 mmHg 48%
    22:00 +23°C° 0 mm 2 m/s 693 mmHg 55%
    23:00 +21°C° 0 mm 2 m/s 692 mmHg 61%

    27 Iulie, Joi

    Timp Temperatura Precipitaţii Vânt Presiune Umiditate
    00:00 +20°C° 0 mm 1 m/s 692 mmHg 67%
    01:00 +19°C° 0 mm 1 m/s 692 mmHg 74%
    02:00 +19°C° 0 mm 1 m/s 692 mmHg 78%
    03:00 +18°C° 0 mm 1 m/s 691 mmHg 83%
    04:00 +16°C° 0 mm 1 m/s 691 mmHg 87%
    05:00 +16°C° 0 mm 1 m/s 692 mmHg 87%
    06:00 +18°C° 0 mm 1 m/s 692 mmHg 86%
    07:00 +18°C° 0 mm 1 m/s 693 mmHg 85%
    08:00 +22°C° 0 mm 1 m/s 693 mmHg 69%
    09:00 +25°C° 0 mm 1 m/s 694 mmHg 52%
    10:00 +29°C° 0 mm 1 m/s 695 mmHg 36%
    11:00 +31°C° 0 mm 1 m/s 694 mmHg 32%
    12:00 +33°C° 0 mm 1 m/s 694 mmHg 27%
    13:00 +36°C° 0 mm 2 m/s 693 mmHg 23%
    14:00 +36°C° 0 mm 2 m/s 692 mmHg 23%
    15:00 +35°C° 0 mm 2 m/s 692 mmHg 24%
    16:00 +35°C° 0 mm 2 m/s 691 mmHg 24%
    17:00 +31°C° 0 mm 2 m/s 691 mmHg 28%
    18:00 +29°C° 0 mm 2 m/s 692 mmHg 33%
    19:00 +27°C° 0 mm 2 m/s 692 mmHg 37%
    20:00 +25°C° 0 mm 2 m/s 692 mmHg 44%
    21:00 +24°C° 0 mm 2 m/s 692 mmHg 51%
    22:00 +22°C° 0 mm 1 m/s 693 mmHg 59%
    23:00 +21°C° 0 mm 1 m/s 692 mmHg 65%

    28 Iulie, Vineri

    Timp Temperatura Precipitaţii Vânt Presiune Umiditate
    00:00 +20°C° 0 mm 1 m/s 692 mmHg 71%
    01:00 +19°C° 0 mm 1 m/s 692 mmHg 76%
    02:00 +19°C° 0 mm 1 m/s 691 mmHg 80%
    03:00 +18°C° 0 mm 1 m/s 691 mmHg 84%
    04:00 +18°C° 0 mm 1 m/s 691 mmHg 87%
    05:00 +18°C° 0 mm 1 m/s 691 mmHg 86%
    06:00 +18°C° 0 mm 1 m/s 691 mmHg 84%
    07:00 +18°C° 0 mm 1 m/s 692 mmHg 82%
    08:00 +23°C° 0 mm 1 m/s 693 mmHg 66%
    09:00 +28°C° 0 mm 1 m/s 694 mmHg 49%
    10:00 +32°C° 0 mm 1 m/s 694 mmHg 32%
    11:00 +34°C° 0 mm 1 m/s 694 mmHg 28%
    12:00 +36°C° 0 mm 1 m/s 693 mmHg 24%
    13:00 +39°C° 0 mm 1 m/s 693 mmHg 21%
    14:00 +37°C° 0 mm 1 m/s 692 mmHg 23%
    15:00 +35°C° 0 mm 1 m/s 691 mmHg 26%
    16:00 +33°C° 0 mm 1 m/s 691 mmHg 29%
    17:00 +31°C° 0 mm 1 m/s 691 mmHg 31%
    18:00 +30°C° 0 mm 1 m/s 691 mmHg 33%
    19:00 +29°C° 0 mm 1 m/s 692 mmHg 35%
    20:00 +28°C° 0 mm 1 m/s 692 mmHg 40%
    21:00 +26°C° 0 mm 1 m/s 692 mmHg 45%
    22:00 +24°C° 0 mm 1 m/s 693 mmHg 50%
    23:00 +23°C° 0 mm 1 m/s 692 mmHg 55%
    Arată mai mult